{"data":{"norad_id":64887,"epoch":"2026-05-25T03:14:01.536000Z","epoch_age_seconds":66636,"freshness":"FRESH","line1":"1 64887U 25155M   26145.13474000  .00025728  00000+0  71206-3 0  9990","line2":"2 64887  97.4490 115.0853 0004801 226.6152 133.4693 15.36968994 77348","mean_motion":15.36968994,"eccentricity":0.0004801,"inclination_deg":97.449,"raan_deg":115.0853,"arg_perigee_deg":226.6152,"mean_anomaly_deg":133.4693,"bstar":0.00071206,"rev_number":7734,"period_min":93.690894586778,"perigee_km":451.7976595027,"apogee_km":458.35891282047,"semimajor_km":6833.2152861616,"source":"CELESTRAK","updated_at":"2026-05-25T13:38:04.872940Z"}}